When you browse on this site, cookies collect data to enhance your experience and personalize the content and advertising you see.
Visit our Privacy Policy to learn more. By continuing to use the site, you agree to this use of cookies and data.
  • En España
  • Lista de países
  • Para 7 días
  • Temperatura del agua
  • Mapa Satelital
  • El tiempo en el mapa
  • Informadores
  • user-avatar
    Iniciar sesión

    Tiempo cada hora Kuriv

    Hoy, 23 Mayo, Jueves

    Tiempo Temperatura Precipitaciones Viento Presión Humedad
    00:00 +14°C° 0.1 mm 1 mps 730 mmHg 83%
    01:00 +14°C° 0.1 mm 1 mps 730 mmHg 85%
    02:00 +14°C° 0.1 mm 1 mps 730 mmHg 86%
    03:00 +12°C° 0 mm 0 mps 730 mmHg 87%
    04:00 +12°C° 0 mm 0 mps 730 mmHg 88%
    05:00 +12°C° 0 mm 0 mps 730 mmHg 89%
    06:00 +13°C° 0.3 mm 0 mps 731 mmHg 88%
    07:00 +14°C° 0.3 mm 0 mps 731 mmHg 87%
    08:00 +15°C° 0.3 mm 0 mps 731 mmHg 85%
    09:00 +16°C° 1 mm 0 mps 731 mmHg 80%
    10:00 +19°C° 1 mm 1 mps 731 mmHg 75%
    11:00 +20°C° 1 mm 1 mps 732 mmHg 69%
    12:00 +19°C° 0.7 mm 2 mps 731 mmHg 70%
    13:00 +20°C° 0.7 mm 2 mps 731 mmHg 71%
    14:00 +20°C° 0.7 mm 2 mps 731 mmHg 72%
    15:00 +20°C° 0.7 mm 3 mps 731 mmHg 74%
    16:00 +19°C° 0.7 mm 3 mps 731 mmHg 76%
    17:00 +19°C° 0.7 mm 3 mps 731 mmHg 79%
    18:00 +18°C° 0.3 mm 3 mps 731 mmHg 83%
    19:00 +16°C° 0.3 mm 3 mps 731 mmHg 87%
    20:00 +15°C° 0.3 mm 2 mps 731 mmHg 91%
    21:00 +13°C° 0 mm 3 mps 731 mmHg 93%
    22:00 +12°C° 0 mm 3 mps 731 mmHg 94%
    23:00 +12°C° 0 mm 3 mps 732 mmHg 96%

    Mañana, 24 Mayo, Viernes

    Tiempo Temperatura Precipitaciones Viento Presión Humedad
    00:00 +12°C° 0 mm 3 mps 732 mmHg 96%
    01:00 +12°C° 0 mm 3 mps 732 mmHg 96%
    02:00 +12°C° 0 mm 4 mps 732 mmHg 96%
    03:00 +12°C° 0 mm 3 mps 732 mmHg 96%
    04:00 +12°C° 0 mm 3 mps 732 mmHg 96%
    05:00 +12°C° 0 mm 3 mps 732 mmHg 95%
    06:00 +13°C° 0 mm 3 mps 732 mmHg 94%
    07:00 +13°C° 0 mm 3 mps 732 mmHg 93%
    08:00 +14°C° 0 mm 3 mps 732 mmHg 92%
    09:00 +16°C° 0 mm 3 mps 732 mmHg 89%
    10:00 +17°C° 0 mm 3 mps 732 mmHg 86%
    11:00 +18°C° 0 mm 3 mps 732 mmHg 83%
    12:00 +18°C° 0.1 mm 3 mps 732 mmHg 81%
    13:00 +19°C° 0.1 mm 3 mps 732 mmHg 80%
    14:00 +19°C° 0.1 mm 3 mps 732 mmHg 79%
    15:00 +19°C° 0.7 mm 3 mps 731 mmHg 80%
    16:00 +19°C° 0.7 mm 4 mps 731 mmHg 82%
    17:00 +19°C° 0.7 mm 4 mps 731 mmHg 83%
    18:00 +18°C° 0.8 mm 4 mps 731 mmHg 87%
    19:00 +17°C° 0.8 mm 3 mps 731 mmHg 91%
    20:00 +16°C° 0.8 mm 3 mps 731 mmHg 94%
    21:00 +15°C° 0.8 mm 2 mps 731 mmHg 95%
    22:00 +15°C° 0.8 mm 2 mps 731 mmHg 96%
    23:00 +14°C° 0.8 mm 2 mps 731 mmHg 97%

    Pasado mañana, 25 Mayo, Sábado

    Tiempo Temperatura Precipitaciones Viento Presión Humedad
    00:00 +14°C° 0.1 mm 2 mps 731 mmHg 98%
    01:00 +13°C° 0.1 mm 2 mps 731 mmHg 98%
    02:00 +13°C° 0.1 mm 2 mps 731 mmHg 98%
    03:00 +12°C° 0.1 mm 3 mps 731 mmHg 98%
    04:00 +12°C° 0.1 mm 3 mps 731 mmHg 98%
    05:00 +12°C° 0.1 mm 3 mps 731 mmHg 98%
    06:00 +13°C° 0.1 mm 3 mps 731 mmHg 97%
    07:00 +13°C° 0.1 mm 4 mps 731 mmHg 95%
    08:00 +14°C° 0.1 mm 4 mps 732 mmHg 94%
    09:00 +14°C° 0.1 mm 4 mps 732 mmHg 93%
    10:00 +15°C° 0.1 mm 4 mps 732 mmHg 91%
    11:00 +16°C° 0.1 mm 5 mps 732 mmHg 89%
    12:00 +17°C° 0.4 mm 5 mps 732 mmHg 84%
    13:00 +19°C° 0.4 mm 5 mps 732 mmHg 79%
    14:00 +20°C° 0.4 mm 5 mps 732 mmHg 74%
    15:00 +20°C° 0.6 mm 5 mps 732 mmHg 76%
    16:00 +20°C° 0.6 mm 5 mps 732 mmHg 78%
    17:00 +20°C° 0.6 mm 4 mps 732 mmHg 80%
    18:00 +19°C° 0.2 mm 4 mps 732 mmHg 83%
    19:00 +17°C° 0.2 mm 3 mps 732 mmHg 87%
    20:00 +16°C° 0.2 mm 2 mps 732 mmHg 90%
    21:00 +14°C° 0 mm 3 mps 732 mmHg 91%
    22:00 +13°C° 0 mm 3 mps 732 mmHg 91%
    23:00 +12°C° 0 mm 3 mps 732 mmHg 92%

    26 Mayo, Domingo

    Tiempo Temperatura Precipitaciones Viento Presión Humedad
    00:00 +12°C° 0 mm 3 mps 732 mmHg 92%
    01:00 +12°C° 0 mm 2 mps 732 mmHg 92%
    02:00 +12°C° 0 mm 2 mps 732 mmHg 93%
    03:00 +12°C° 0 mm 2 mps 732 mmHg 93%
    04:00 +12°C° 0 mm 2 mps 732 mmHg 93%
    05:00 +11°C° 0 mm 1 mps 732 mmHg 93%
    06:00 +13°C° 0 mm 1 mps 732 mmHg 90%
    07:00 +15°C° 0 mm 1 mps 733 mmHg 86%
    08:00 +16°C° 0 mm 1 mps 733 mmHg 83%
    09:00 +19°C° 0.8 mm 1 mps 733 mmHg 81%
    10:00 +19°C° 0.8 mm 2 mps 732 mmHg 78%
    11:00 +20°C° 0.8 mm 3 mps 732 mmHg 76%
    12:00 +20°C° 1.5 mm 3 mps 732 mmHg 76%
    13:00 +20°C° 1.5 mm 4 mps 732 mmHg 75%
    14:00 +21°C° 1.5 mm 4 mps 731 mmHg 75%
    15:00 +20°C° 1 mm 4 mps 731 mmHg 77%
    16:00 +20°C° 1 mm 5 mps 731 mmHg 79%
    17:00 +20°C° 1 mm 5 mps 731 mmHg 81%
    18:00 +18°C° 0.9 mm 4 mps 731 mmHg 85%
    19:00 +17°C° 0.9 mm 4 mps 732 mmHg 89%
    20:00 +14°C° 0.9 mm 3 mps 732 mmHg 93%
    21:00 +14°C° 0 mm 2 mps 732 mmHg 93%
    22:00 +14°C° 0 mm 2 mps 733 mmHg 92%
    23:00 +13°C° 0 mm 1 mps 733 mmHg 92%

    27 Mayo, Lunes

    Tiempo Temperatura Precipitaciones Viento Presión Humedad
    00:00 +13°C° 0 mm 1 mps 734 mmHg 92%
    01:00 +12°C° 0 mm 1 mps 734 mmHg 91%
    02:00 +12°C° 0 mm 1 mps 734 mmHg 91%
    03:00 +11°C° 0 mm 1 mps 734 mmHg 91%
    04:00 +11°C° 0 mm 1 mps 734 mmHg 92%
    05:00 +10°C° 0 mm 1 mps 734 mmHg 92%
    06:00 +12°C° 0 mm 1 mps 735 mmHg 87%
    07:00 +13°C° 0 mm 1 mps 735 mmHg 81%
    08:00 +15°C° 0 mm 1 mps 735 mmHg 76%
    09:00 +16°C° 0 mm 1 mps 735 mmHg 72%
    10:00 +17°C° 0 mm 2 mps 735 mmHg 68%
    11:00 +18°C° 0 mm 2 mps 735 mmHg 64%
    12:00 +19°C° 0 mm 3 mps 734 mmHg 66%
    13:00 +20°C° 0 mm 3 mps 734 mmHg 68%
    14:00 +21°C° 0 mm 4 mps 734 mmHg 71%
    15:00 +21°C° 0 mm 4 mps 734 mmHg 73%
    16:00 +21°C° 0 mm 4 mps 733 mmHg 76%
    17:00 +21°C° 0 mm 5 mps 733 mmHg 79%
    18:00 +20°C° 0 mm 4 mps 733 mmHg 82%
    19:00 +19°C° 0 mm 4 mps 733 mmHg 86%
    20:00 +18°C° 0 mm 4 mps 732 mmHg 89%
    21:00 +18°C° 0.2 mm 4 mps 732 mmHg 91%
    22:00 +17°C° 0.2 mm 4 mps 732 mmHg 92%
    23:00 +17°C° 0.2 mm 4 mps 731 mmHg 93%

    28 Mayo, Martes

    Tiempo Temperatura Precipitaciones Viento Presión Humedad
    00:00 +17°C° 0 mm 4 mps 731 mmHg 94%
    01:00 +17°C° 0 mm 3 mps 731 mmHg 95%
    02:00 +17°C° 0 mm 3 mps 730 mmHg 96%
    03:00 +16°C° 1.6 mm 3 mps 730 mmHg 96%
    04:00 +16°C° 1.6 mm 3 mps 729 mmHg 96%
    05:00 +16°C° 1.6 mm 2 mps 729 mmHg 97%
    06:00 +17°C° 1.2 mm 3 mps 729 mmHg 95%
    07:00 +17°C° 1.2 mm 3 mps 729 mmHg 93%
    08:00 +18°C° 1.2 mm 3 mps 729 mmHg 92%
    09:00 +20°C° 0 mm 3 mps 728 mmHg 85%
    10:00 +21°C° 0 mm 3 mps 728 mmHg 79%
    11:00 +23°C° 0 mm 4 mps 728 mmHg 72%
    12:00 +23°C° 0.9 mm 4 mps 728 mmHg 75%
    13:00 +23°C° 0.9 mm 4 mps 728 mmHg 78%
    14:00 +23°C° 0.9 mm 4 mps 728 mmHg 80%
    15:00 +24°C° 0.4 mm 3 mps 728 mmHg 82%
    16:00 +22°C° 0.4 mm 3 mps 728 mmHg 84%
    17:00 +23°C° 0.4 mm 2 mps 728 mmHg 85%
    18:00 +21°C° 0.1 mm 2 mps 728 mmHg 85%
    19:00 +20°C° 0.1 mm 2 mps 728 mmHg 85%
    20:00 +21°C° 0.1 mm 1 mps 728 mmHg 85%
    21:00 +20°C° 0 mm 1 mps 728 mmHg 85%
    22:00 +19°C° 0 mm 1 mps 728 mmHg 86%
    23:00 +18°C° 0 mm 1 mps 728 mmHg 87%
    Mostrar más